Total_Precipitation_Accumulation
0.64 0.51 0.69 0.74 0.73 0.84 1.22 1.25 1.18 0.68 0.43 0.38 0.37 0.42 0.40 0.35 0.31 0.31 0.33 0.34 0.34 0.37 0.39 0.37 0.35 0.34 0.32 0.32 0.35 0.38 0.45 0.50 0.52 0.57 0.61 0.65 0.66 0.68 0.73 0.75 0.78 0.80 0.82 0.85
0.70 0.44 0.53 0.62 0.60 0.63 0.74 0.80 0.81 0.60 0.55 0.45 0.41 0.38 0.36 0.34 0.31 0.31 0.31 0.32 0.32 0.30 0.32 0.33 0.35 0.36 0.35 0.34 0.34 0.37 0.40 0.44 0.48 0.51 0.54 0.60 0.65 0.67 0.69 0.74 0.80 0.84 0.89 0.94
0.87 0.50 0.63 0.77 0.69 0.68 0.70 0.69 0.71 0.73 0.65 0.51 0.47 0.42 0.39 0.36 0.33 0.31 0.27 0.25 0.26 0.26 0.28 0.29 0.30 0.32 0.34 0.34 0.34 0.36 0.38 0.40 0.44 0.49 0.53 0.56 0.64 0.70 0.77 0.82 0.91 0.97 1.01 1.10
1.01 0.71 0.90 0.73 0.55 0.57 0.61 0.64 0.67 0.64 0.55 0.49 0.46 0.44 0.41 0.37 0.31 0.28 0.25 0.23 0.20 0.21 0.22 0.22 0.22 0.25 0.29 0.31 0.33 0.34 0.37 0.44 0.47 0.50 0.60 0.66 0.68 0.76 0.86 0.93 1.01 1.08 1.07 1.09
1.16 0.89 0.61 0.42 0.39 0.52 0.60 0.65 0.62 0.49 0.39 0.37 0.36 0.38 0.39 0.33 0.28 0.26 0.24 0.25 0.23 0.21 0.21 0.21 0.21 0.24 0.30 0.34 0.36 0.35 0.37 0.44 0.50 0.54 0.65 0.74 0.74 0.78 0.86 0.92 0.99 1.02 1.02 0.99
1.22 1.03 0.59 0.41 0.26 0.29 0.47 0.70 0.51 0.42 0.40 0.39 0.39 0.46 0.41 0.32 0.28 0.28 0.25 0.24 0.27 0.27 0.25 0.26 0.28 0.30 0.35 0.41 0.48 0.49 0.48 0.52 0.59 0.67 0.78 0.82 0.80 0.80 0.80 0.81 0.83 0.81 0.79 0.75
1.03 0.97 0.53 0.37 0.23 0.25 0.63 0.76 0.40 0.38 0.40 0.42 0.45 0.45 0.38 0.29 0.26 0.29 0.30 0.28 0.28 0.31 0.33 0.34 0.36 0.37 0.40 0.45 0.57 0.63 0.64 0.65 0.68 0.74 0.79 0.80 0.78 0.74 0.71 0.67 0.68 0.66 0.64 0.62
0.78 1.00 0.74 0.39 0.30 0.54 0.69 0.41 0.35 0.36 0.40 0.42 0.40 0.33 0.29 0.29 0.28 0.27 0.28 0.28 0.31 0.35 0.38 0.38 0.44 0.50 0.51 0.53 0.59 0.64 0.67 0.66 0.66 0.66 0.68 0.72 0.72 0.69 0.65 0.63 0.63 0.62 0.63 0.64
0.69 0.78 0.67 0.51 0.54 0.55 0.45 0.40 0.34 0.35 0.37 0.37 0.36 0.35 0.29 0.26 0.26 0.27 0.29 0.30 0.33 0.40 0.43 0.45 0.46 0.51 0.55 0.53 0.53 0.56 0.60 0.62 0.59 0.55 0.56 0.58 0.60 0.62 0.62 0.61 0.60 0.61 0.62 0.65
0.58 0.59 0.50 0.47 0.41 0.37 0.37 0.39 0.35 0.32 0.33 0.36 0.38 0.34 0.31 0.29 0.28 0.26 0.27 0.29 0.32 0.35 0.37 0.39 0.41 0.42 0.45 0.43 0.42 0.45 0.48 0.52 0.53 0.50 0.49 0.49 0.50 0.54 0.57 0.58 0.57 0.57 0.58 0.62
0.52 0.47 0.38 0.37 0.37 0.37 0.34 0.31 0.28 0.26 0.26 0.31 0.32 0.32 0.32 0.32 0.31 0.29 0.28 0.29 0.30 0.32 0.35 0.37 0.36 0.37 0.38 0.38 0.38 0.41 0.41 0.42 0.44 0.47 0.49 0.50 0.51 0.54 0.58 0.59 0.64 0.64 0.58 0.56
0.58 0.46 0.45 0.46 0.39 0.35 0.33 0.32 0.30 0.28 0.26 0.25 0.27 0.30 0.28 0.30 0.29 0.30 0.32 0.31 0.30 0.31 0.33 0.38 0.38 0.36 0.35 0.36 0.37 0.41 0.43 0.43 0.44 0.47 0.48 0.49 0.50 0.54 0.61 0.62 0.67 0.67 0.66 0.63
0.42 0.34 0.32 0.31 0.26 0.26 0.29 0.29 0.27 0.28 0.29 0.30 0.30 0.29 0.29 0.30 0.30 0.32 0.35 0.34 0.34 0.33 0.31 0.33 0.36 0.37 0.36 0.38 0.40 0.42 0.45 0.46 0.46 0.47 0.50 0.50 0.49 0.50 0.54 0.56 0.60 0.62 0.64 0.65
0.21 0.20 0.21 0.20 0.22 0.21 0.23 0.24 0.23 0.23 0.25 0.29 0.31 0.29 0.29 0.30 0.31 0.35 0.39 0.39 0.35 0.32 0.31 0.29 0.31 0.36 0.37 0.37 0.40 0.43 0.45 0.49 0.49 0.49 0.50 0.51 0.50 0.49 0.49 0.50 0.50 0.49 0.54 0.61
0.13 0.17 0.23 0.21 0.16 0.17 0.19 0.19 0.19 0.20 0.21 0.22 0.23 0.25 0.29 0.33 0.36 0.39 0.41 0.39 0.34 0.32 0.30 0.29 0.29 0.31 0.33 0.37 0.39 0.40 0.43 0.44 0.46 0.48 0.51 0.54 0.53 0.51 0.51 0.50 0.49 0.48 0.48 0.56
0.14 0.13 0.13 0.14 0.14 0.15 0.15 0.18 0.21 0.22 0.22 0.22 0.24 0.28 0.31 0.33 0.33 0.34 0.36 0.38 0.38 0.36 0.33 0.30 0.31 0.32 0.32 0.34 0.37 0.38 0.41 0.47 0.48 0.48 0.48 0.50 0.53 0.53 0.52 0.53 0.53 0.51 0.50 0.53
0.21 0.20 0.19 0.19 0.18 0.17 0.17 0.19 0.23 0.24 0.24 0.26 0.30 0.31 0.30 0.29 0.29 0.29 0.33 0.36 0.36 0.36 0.36 0.37 0.37 0.33 0.31 0.33 0.36 0.38 0.39 0.43 0.49 0.48 0.49 0.51 0.51 0.52 0.52 0.54 0.55 0.54 0.52 0.56
0.23 0.24 0.25 0.26 0.26 0.23 0.21 0.20 0.21 0.22 0.23 0.25 0.25 0.26 0.28 0.30 0.32 0.33 0.34 0.33 0.30 0.28 0.29 0.33 0.34 0.31 0.30 0.33 0.37 0.38 0.40 0.41 0.41 0.43 0.47 0.52 0.55 0.53 0.54 0.55 0.54 0.54 0.54 0.59
0.19 0.19 0.19 0.21 0.23 0.23 0.22 0.21 0.21 0.22 0.21 0.21 0.22 0.25 0.26 0.28 0.30 0.30 0.28 0.28 0.29 0.31 0.31 0.29 0.31 0.29 0.30 0.33 0.37 0.37 0.40 0.42 0.43 0.45 0.49 0.56 0.58 0.55 0.55 0.55 0.55 0.54 0.55 0.58
0.15 0.16 0.18 0.19 0.20 0.21 0.22 0.22 0.21 0.22 0.22 0.22 0.22 0.22 0.23 0.25 0.27 0.27 0.25 0.27 0.31 0.37 0.34 0.32 0.29 0.27 0.28 0.31 0.37 0.37 0.40 0.42 0.45 0.47 0.50 0.54 0.55 0.54 0.54 0.57 0.56 0.55 0.54 0.56
0.16 0.17 0.19 0.21 0.21 0.21 0.22 0.22 0.22 0.22 0.21 0.20 0.21 0.23 0.24 0.26 0.27 0.28 0.29 0.29 0.28 0.29 0.30 0.30 0.27 0.27 0.29 0.34 0.38 0.39 0.41 0.43 0.45 0.47 0.49 0.52 0.54 0.54 0.54 0.54 0.56 0.55 0.55 0.55
0.18 0.19 0.21 0.23 0.24 0.24 0.23 0.22 0.22 0.21 0.20 0.19 0.19 0.20 0.20 0.22 0.23 0.25 0.26 0.30 0.31 0.31 0.28 0.25 0.26 0.30 0.36 0.41 0.39 0.38 0.41 0.44 0.46 0.46 0.48 0.51 0.54 0.54 0.54 0.55 0.58 0.57 0.56 0.56
0.19 0.20 0.21 0.23 0.24 0.25 0.24 0.23 0.23 0.22 0.21 0.21 0.23 0.24 0.26 0.27 0.27 0.29 0.30 0.26 0.26 0.28 0.26 0.24 0.28 0.34 0.38 0.38 0.36 0.37 0.40 0.43 0.44 0.46 0.48 0.50 0.53 0.56 0.58 0.57 0.57 0.56 0.57 0.57
0.20 0.20 0.21 0.21 0.20 0.20 0.20 0.20 0.21 0.22 0.22 0.22 0.23 0.25 0.28 0.28 0.26 0.25 0.28 0.29 0.28 0.28 0.26 0.26 0.30 0.34 0.36 0.33 0.33 0.37 0.40 0.42 0.45 0.46 0.48 0.51 0.51 0.53 0.55 0.56 0.56 0.53 0.52 0.52
0.20 0.19 0.19 0.19 0.20 0.20 0.20 0.19 0.18 0.17 0.18 0.18 0.18 0.19 0.22 0.26 0.30 0.28 0.25 0.26 0.27 0.27 0.26 0.27 0.30 0.33 0.33 0.32 0.34 0.38 0.41 0.44 0.49 0.52 0.53 0.53 0.50 0.50 0.51 0.52 0.54 0.53 0.51 0.49
0.17 0.18 0.18 0.18 0.19 0.19 0.20 0.19 0.19 0.18 0.18 0.19 0.17 0.17 0.18 0.20 0.22 0.23 0.24 0.24 0.24 0.26 0.26 0.27 0.29 0.31 0.32 0.33 0.36 0.39 0.41 0.45 0.47 0.48 0.48 0.49 0.50 0.50 0.50 0.49 0.50 0.50 0.49 0.47
0.15 0.15 0.16 0.15 0.14 0.14 0.17 0.20 0.22 0.21 0.21 0.24 0.24 0.20 0.20 0.21 0.21 0.22 0.22 0.23 0.23 0.24 0.24 0.26 0.27 0.29 0.31 0.33 0.35 0.37 0.39 0.41 0.43 0.44 0.46 0.48 0.50 0.51 0.50 0.50 0.50 0.49 0.48 0.47